Time,TemperatureF,DewpointF,PressureIn,WindDirection,WindDirectionDegrees,WindSpeedMPH,WindSpeedGustMPH,Humidity,HourlyPrecipIn,Conditions,Clouds,dailyrainin,SoftwareType,DateUTC
2013-05-23 00:01:00,53.2,49.1,29.96,West,279,6.0,12.0,86,0.00,,---,0.00,VWS V14.01,2013-05-23 05:01:00,
2013-05-23 00:07:00,53.2,49.1,29.96,NW,314,9.0,13.0,86,0.00,,---,0.00,VWS V14.01,2013-05-23 05:07:00,
2013-05-23 00:13:00,53.2,49.1,29.97,WNW,295,4.0,13.0,86,0.00,,---,0.00,VWS V14.01,2013-05-23 05:13:00,
2013-05-23 00:19:00,53.2,49.1,29.97,NW,319,7.0,13.0,86,0.00,,---,0.00,VWS V14.01,2013-05-23 05:19:00,
2013-05-23 00:25:00,53.1,49.0,29.97,NW,307,5.0,13.0,86,0.00,,---,0.00,VWS V14.01,2013-05-23 05:25:00,
2013-05-23 00:31:00,52.9,48.8,29.97,NW,314,3.0,13.0,86,0.00,,---,0.00,VWS V14.01,2013-05-23 05:31:00,
2013-05-23 00:37:00,52.7,49.0,29.97,NW,308,2.0,13.0,87,0.00,,---,0.00,VWS V14.01,2013-05-23 05:37:00,
2013-05-23 00:43:00,52.6,48.8,29.97,NW,310,4.0,13.0,87,0.00,,---,0.00,VWS V14.01,2013-05-23 05:43:00,
2013-05-23 00:49:00,52.6,48.8,29.97,NW,311,11.0,13.0,87,0.00,,---,0.00,VWS V14.01,2013-05-23 05:49:00,
2013-05-23 00:55:00,52.6,48.8,29.97,WNW,288,5.0,13.0,87,0.00,,---,0.00,VWS V14.01,2013-05-23 05:55:00,
2013-05-23 01:01:00,52.6,48.8,29.97,WNW,298,3.0,13.0,87,0.00,,---,0.00,VWS V14.01,2013-05-23 06:01:00,
2013-05-23 01:07:00,52.5,48.8,29.97,NW,305,5.0,11.0,87,0.00,,---,0.00,VWS V14.01,2013-05-23 06:07:00,
2013-05-23 01:13:00,52.3,48.5,29.97,NNW,328,9.0,11.0,87,0.00,,---,0.00,VWS V14.01,2013-05-23 06:13:00,
2013-05-23 01:19:00,52.3,48.9,29.97,NW,318,5.0,12.0,88,0.00,,---,0.00,VWS V14.01,2013-05-23 06:19:00,
2013-05-23 01:25:00,52.3,48.9,29.98,WNW,300,4.0,12.0,88,0.00,,---,0.00,VWS V14.01,2013-05-23 06:25:00,
2013-05-23 01:30:00,52.2,48.5,29.98,WNW,294,2.0,12.0,87,0.00,,---,0.00,VWS V14.01,2013-05-23 06:30:00,
2013-05-23 01:35:00,52.0,48.3,29.98,NW,321,6.0,8.0,87,0.00,,---,0.00,VWS V14.01,2013-05-23 06:35:00,
2013-05-23 01:41:00,51.7,48.0,29.98,NW,311,2.0,8.0,87,0.00,,---,0.00,VWS V14.01,2013-05-23 06:41:00,
2013-05-23 01:48:00,51.6,48.2,29.98,NW,309,2.0,10.0,88,0.00,,---,0.00,VWS V14.01,2013-05-23 06:48:00,
2013-05-23 01:54:00,51.6,48.2,29.99,NW,320,3.0,10.0,88,0.00,,---,0.00,VWS V14.01,2013-05-23 06:54:00,
2013-05-23 02:00:00,51.7,48.3,29.98,NW,305,3.0,10.0,88,0.00,,---,0.00,VWS V14.01,2013-05-23 07:00:00,
2013-05-23 02:06:00,51.7,48.3,29.99,NW,318,8.0,12.0,88,0.00,,---,0.00,VWS V14.01,2013-05-23 07:06:00,
2013-05-23 02:12:00,51.6,48.2,29.99,WNW,287,4.0,12.0,88,0.00,,---,0.00,VWS V14.01,2013-05-23 07:12:00,
2013-05-23 02:18:00,51.7,48.6,29.99,WNW,302,6.0,12.0,89,0.00,,---,0.00,VWS V14.01,2013-05-23 07:18:00,
2013-05-23 02:24:00,51.7,48.6,29.98,NW,318,7.0,12.0,89,0.00,,---,0.00,VWS V14.01,2013-05-23 07:24:00,
2013-05-23 02:30:00,51.8,49.5,29.99,NW,317,6.0,12.0,92,0.00,,---,0.00,VWS V14.01,2013-05-23 07:30:00,
2013-05-23 02:36:00,51.9,48.8,29.99,NW,315,6.0,13.0,89,0.00,,---,0.00,VWS V14.01,2013-05-23 07:36:00,
2013-05-23 02:42:00,52.0,48.9,29.99,NW,310,6.0,13.0,89,0.00,,---,0.00,VWS V14.01,2013-05-23 07:42:00,
2013-05-23 02:48:00,52.1,48.7,29.99,WNW,284,5.0,13.0,88,0.00,,---,0.00,VWS V14.01,2013-05-23 07:48:00,
2013-05-23 02:54:00,52.1,48.7,29.99,West,273,6.0,13.0,88,0.00,,---,0.00,VWS V14.01,2013-05-23 07:54:00,
2013-05-23 03:00:00,52.1,48.7,29.99,West,260,5.0,13.0,88,0.00,,---,0.00,VWS V14.01,2013-05-23 08:00:00,
2013-05-23 03:06:00,52.2,48.8,30.00,NNW,342,12.0,13.0,88,0.00,,---,0.00,VWS V14.01,2013-05-23 08:06:00,
2013-05-23 03:12:00,52.2,48.8,30.00,NW,321,8.0,19.0,88,0.00,,---,0.00,VWS V14.01,2013-05-23 08:12:00,
2013-05-23 03:19:00,52.2,48.8,30.00,NNW,327,8.0,19.0,88,0.00,,---,0.00,VWS V14.01,2013-05-23 08:19:00,
2013-05-23 03:25:00,52.2,48.8,30.00,NW,306,7.0,19.0,88,0.00,,---,0.00,VWS V14.01,2013-05-23 08:25:00,
2013-05-23 03:30:00,52.2,48.8,30.01,North,5,10.0,19.0,88,0.00,,---,0.00,VWS V14.01,2013-05-23 08:30:00,
2013-05-23 03:37:00,52.2,48.8,30.01,WNW,302,4.0,11.0,88,0.00,,---,0.00,VWS V14.01,2013-05-23 08:37:00,
2013-05-23 03:43:00,52.2,48.8,30.01,NNW,327,6.0,14.0,88,0.00,,---,0.00,VWS V14.01,2013-05-23 08:43:00,
2013-05-23 03:49:00,52.3,48.9,30.02,NW,315,5.0,14.0,88,0.00,,---,0.00,VWS V14.01,2013-05-23 08:49:00,
2013-05-23 03:55:00,52.3,48.9,30.02,NW,314,4.0,14.0,88,0.00,,---,0.00,VWS V14.01,2013-05-23 08:55:00,
2013-05-23 04:00:00,52.2,48.8,30.02,NNW,345,4.0,14.0,88,0.00,,---,0.00,VWS V14.01,2013-05-23 09:00:00,
2013-05-23 04:07:00,52.2,48.8,30.02,NNW,338,5.0,11.0,88,0.00,,---,0.00,VWS V14.01,2013-05-23 09:07:00,
2013-05-23 04:13:00,52.1,48.7,30.02,NW,324,9.0,11.0,88,0.00,,---,0.00,VWS V14.01,2013-05-23 09:13:00,
2013-05-23 04:19:00,52.0,48.3,30.02,North,9,4.0,15.0,87,0.00,,---,0.00,VWS V14.01,2013-05-23 09:19:00,
2013-05-23 04:25:00,51.9,48.5,30.03,NNW,336,7.0,15.0,88,0.00,,---,0.00,VWS V14.01,2013-05-23 09:25:00,
2013-05-23 04:30:00,51.9,48.5,30.03,NNW,341,6.0,15.0,88,0.00,,---,0.00,VWS V14.01,2013-05-23 09:30:00,
2013-05-23 04:37:00,51.8,48.4,30.03,NW,306,5.0,11.0,88,0.00,,---,0.00,VWS V14.01,2013-05-23 09:37:00,
2013-05-23 04:43:00,51.8,48.4,30.04,WNW,294,7.0,11.0,88,0.00,,---,0.00,VWS V14.01,2013-05-23 09:43:00,
2013-05-23 04:49:00,51.7,48.3,30.04,NNW,348,9.0,16.0,88,0.00,,---,0.00,VWS V14.01,2013-05-23 09:49:00,
2013-05-23 04:55:00,51.5,48.1,30.04,NNW,342,3.0,16.0,88,0.00,,---,0.00,VWS V14.01,2013-05-23 09:55:00,
2013-05-23 05:01:00,51.5,48.1,30.04,NW,319,7.0,16.0,88,0.00,,---,0.00,VWS V14.01,2013-05-23 10:01:00,
2013-05-23 05:07:00,51.5,48.1,30.05,NNW,343,10.0,11.0,88,0.00,,---,0.00,VWS V14.01,2013-05-23 10:07:00,
2013-05-23 05:13:00,51.5,48.1,30.05,NNW,346,9.0,11.0,88,0.00,,---,0.00,VWS V14.01,2013-05-23 10:13:00,
2013-05-23 05:19:00,51.5,48.1,30.05,NNW,329,11.0,13.0,88,0.00,,---,0.00,VWS V14.01,2013-05-23 10:19:00,
2013-05-23 05:25:00,51.4,48.0,30.06,NW,320,9.0,14.0,88,0.00,,---,0.00,VWS V14.01,2013-05-23 10:25:00,
2013-05-23 05:30:00,51.3,47.9,30.06,NW,317,5.0,14.0,88,0.00,,---,0.00,VWS V14.01,2013-05-23 10:30:00,
2013-05-23 05:37:00,51.2,47.8,30.06,NNW,346,5.0,12.0,88,0.00,,---,0.00,VWS V14.01,2013-05-23 10:37:00,
2013-05-23 05:43:00,51.1,47.7,30.06,North,349,8.0,12.0,88,0.00,,---,0.00,VWS V14.01,2013-05-23 10:43:00,
2013-05-23 05:49:00,51.0,47.9,30.06,NNW,341,9.0,12.0,89,0.00,,---,0.00,VWS V14.01,2013-05-23 10:49:00,
2013-05-23 05:55:00,51.0,47.6,30.07,NNW,336,5.0,12.0,88,0.00,,---,0.00,VWS V14.01,2013-05-23 10:55:00,
2013-05-23 06:00:00,51.0,47.6,30.07,NW,320,7.0,12.0,88,0.00,,---,0.00,VWS V14.01,2013-05-23 11:00:00,
2013-05-23 06:05:00,51.0,47.9,30.07,NNE,31,5.0,9.0,89,0.00,,---,0.00,VWS V14.01,2013-05-23 11:05:00,
2013-05-23 06:11:00,51.0,47.9,30.07,North,350,3.0,11.0,89,0.00,,---,0.00,VWS V14.01,2013-05-23 11:11:00,
2013-05-23 06:17:00,51.0,47.6,30.08,NNW,331,3.0,11.0,88,0.00,,---,0.00,VWS V14.01,2013-05-23 11:17:00,
2013-05-23 06:24:00,51.0,47.6,30.08,NW,317,7.0,11.0,88,0.00,,---,0.00,VWS V14.01,2013-05-23 11:24:00,
2013-05-23 06:30:00,51.0,47.6,30.08,North,355,2.0,11.0,88,0.00,,---,0.00,VWS V14.01,2013-05-23 11:30:00,
2013-05-23 06:36:00,50.9,47.5,30.08,North,355,0.0,12.0,88,0.00,,---,0.00,VWS V14.01,2013-05-23 11:36:00,
2013-05-23 06:42:00,50.9,47.5,30.09,NNE,21,14.0,14.0,88,0.00,,---,0.00,VWS V14.01,2013-05-23 11:42:00,
2013-05-23 06:48:00,50.8,47.7,30.09,NNW,342,7.0,14.0,89,0.00,,---,0.00,VWS V14.01,2013-05-23 11:48:00,
2013-05-23 06:54:00,50.9,47.8,30.10,North,360,7.0,14.0,89,0.00,,---,0.00,VWS V14.01,2013-05-23 11:54:00,
2013-05-23 07:00:00,50.9,47.8,30.10,North,5,8.0,14.0,89,0.00,,---,0.00,VWS V14.01,2013-05-23 12:00:00,
2013-05-23 07:06:00,50.9,47.5,30.10,North,349,8.0,10.0,88,0.00,,---,0.00,VWS V14.01,2013-05-23 12:06:00,
2013-05-23 07:12:00,51.0,47.6,30.10,NNE,30,9.0,12.0,88,0.00,,---,0.00,VWS V14.01,2013-05-23 12:12:00,
2013-05-23 07:18:00,50.9,47.5,30.11,NNW,339,3.0,12.0,88,0.00,,---,0.00,VWS V14.01,2013-05-23 12:18:00,
2013-05-23 07:24:00,51.0,47.6,30.11,NNW,337,7.0,12.0,88,0.00,,---,0.00,VWS V14.01,2013-05-23 12:24:00,
2013-05-23 07:30:00,51.2,47.8,30.11,NNW,328,4.0,12.0,88,0.00,,---,0.00,VWS V14.01,2013-05-23 12:30:00,
2013-05-23 07:36:00,51.2,47.8,30.12,NNW,342,2.0,6.0,88,0.00,,---,0.00,VWS V14.01,2013-05-23 12:36:00,
2013-05-23 07:42:00,51.4,48.0,30.12,NNW,333,5.0,8.0,88,0.00,,---,0.00,VWS V14.01,2013-05-23 12:42:00,
2013-05-23 07:48:00,51.5,48.1,30.12,North,11,8.0,9.0,88,0.00,,---,0.00,VWS V14.01,2013-05-23 12:48:00,
2013-05-23 07:54:00,51.5,48.1,30.12,NNE,14,5.0,11.0,88,0.00,,---,0.00,VWS V14.01,2013-05-23 12:54:00,
2013-05-23 08:00:00,51.6,48.2,30.13,North,355,4.0,11.0,88,0.00,,---,0.00,VWS V14.01,2013-05-23 13:00:00,
2013-05-23 08:06:00,51.8,48.7,30.13,North,11,5.0,10.0,89,0.00,,---,0.00,VWS V14.01,2013-05-23 13:06:00,
2013-05-23 08:12:00,51.9,48.5,30.13,NNW,343,5.0,10.0,88,0.00,,---,0.00,VWS V14.01,2013-05-23 13:12:00,
2013-05-23 08:18:00,52.1,48.7,30.14,North,355,7.0,10.0,88,0.00,,---,0.00,VWS V14.01,2013-05-23 13:18:00,
2013-05-23 08:24:00,52.1,48.7,30.14,North,360,1.0,10.0,88,0.00,,---,0.00,VWS V14.01,2013-05-23 13:24:00,
2013-05-23 08:30:00,52.3,48.9,30.14,NNE,18,6.0,10.0,88,0.00,,---,0.00,VWS V14.01,2013-05-23 13:30:00,
2013-05-23 08:36:00,52.2,48.5,30.15,NNE,15,5.0,9.0,87,0.00,,---,0.00,VWS V14.01,2013-05-23 13:36:00,
2013-05-23 08:42:00,52.4,48.7,30.15,North,355,1.0,9.0,87,0.00,,---,0.00,VWS V14.01,2013-05-23 13:42:00,
2013-05-23 08:48:00,52.4,48.7,30.15,NNE,12,6.0,9.0,87,0.00,,---,0.00,VWS V14.01,2013-05-23 13:48:00,
2013-05-23 08:54:00,52.4,48.7,30.16,NNE,26,3.0,10.0,87,0.00,,---,0.00,VWS V14.01,2013-05-23 13:54:00,
2013-05-23 09:00:00,52.6,48.5,30.16,NNE,18,0.0,13.0,86,0.00,,---,0.00,VWS V14.01,2013-05-23 14:00:00,
2013-05-23 09:06:00,52.8,48.7,30.16,North,5,3.0,7.0,86,0.00,,---,0.00,VWS V14.01,2013-05-23 14:06:00,
2013-05-23 09:13:00,53.0,48.6,30.17,ENE,59,4.0,7.0,85,0.00,,---,0.00,VWS V14.01,2013-05-23 14:13:00,
2013-05-23 09:19:00,53.1,48.4,30.17,NNE,29,2.0,7.0,84,0.00,,---,0.00,VWS V14.01,2013-05-23 14:19:00,
2013-05-23 09:25:00,53.3,48.6,30.17,NNE,30,4.0,9.0,84,0.00,,---,0.00,VWS V14.01,2013-05-23 14:25:00,
2013-05-23 09:30:00,53.4,48.7,30.17,NE,41,1.0,9.0,84,0.00,,---,0.00,VWS V14.01,2013-05-23 14:30:00,
2013-05-23 09:37:00,53.5,48.8,30.17,NNE,33,1.0,3.0,84,0.00,,---,0.00,VWS V14.01,2013-05-23 14:37:00,
2013-05-23 09:43:00,53.6,48.9,30.17,NNE,21,0.0,5.0,84,0.00,,---,0.00,VWS V14.01,2013-05-23 14:43:00,
2013-05-23 09:49:00,53.7,49.0,30.17,NNE,22,3.0,5.0,84,0.00,,---,0.00,VWS V14.01,2013-05-23 14:49:00,
2013-05-23 09:55:00,53.9,49.2,30.18,NNE,26,3.0,5.0,84,0.00,,---,0.00,VWS V14.01,2013-05-23 14:55:00,
2013-05-23 10:01:00,54.1,49.7,30.17,NNE,13,8.0,10.0,85,0.00,,---,0.00,VWS V14.01,2013-05-23 15:01:00,
2013-05-23 10:07:00,54.0,49.3,30.17,ENE,59,1.0,8.0,84,0.00,,---,0.00,VWS V14.01,2013-05-23 15:07:00,
2013-05-23 10:13:00,54.2,49.5,30.17,NNE,32,1.0,8.0,84,0.00,,---,0.00,VWS V14.01,2013-05-23 15:13:00,
2013-05-23 10:19:00,54.3,49.3,30.17,ENE,71,1.0,9.0,83,0.00,,---,0.00,VWS V14.01,2013-05-23 15:19:00,
2013-05-23 10:25:00,54.4,49.3,30.17,NNE,22,0.0,9.0,83,0.00,,---,0.00,VWS V14.01,2013-05-23 15:25:00,
2013-05-23 10:36:00,54.9,49.5,30.17,ENE,69,1.0,8.0,82,0.00,,---,0.00,VWS V14.01,2013-05-23 15:36:00,
2013-05-23 10:42:00,55.1,49.4,30.17,NNE,22,1.0,8.0,81,0.00,,---,0.00,VWS V14.01,2013-05-23 15:42:00,
2013-05-23 10:48:00,55.4,50.7,30.17,NE,34,0.0,8.0,84,0.00,,---,0.00,VWS V14.01,2013-05-23 15:48:00,
2013-05-23 10:54:00,55.7,50.0,30.17,NNE,28,0.0,8.0,81,0.00,,---,0.00,VWS V14.01,2013-05-23 15:54:00,
2013-05-23 11:00:00,55.7,50.0,30.17,NNE,24,3.0,11.0,81,0.00,,---,0.00,VWS V14.01,2013-05-23 16:00:00,
2013-05-23 11:07:00,55.9,50.2,30.17,NNE,24,4.0,12.0,81,0.00,,---,0.00,VWS V14.01,2013-05-23 16:07:00,
2013-05-23 11:13:00,56.0,49.9,30.17,NNE,19,10.0,12.0,80,0.00,,---,0.00,VWS V14.01,2013-05-23 16:13:00,
2013-05-23 11:19:00,56.3,50.2,30.17,NE,53,6.0,13.0,80,0.00,,---,0.00,VWS V14.01,2013-05-23 16:19:00,
2013-05-23 11:25:00,57.1,51.0,30.17,NNE,26,9.0,13.0,80,0.00,,---,0.00,VWS V14.01,2013-05-23 16:25:00,
2013-05-23 11:30:00,58.2,51.4,30.17,NNE,22,1.0,13.0,78,0.00,,---,0.00,VWS V14.01,2013-05-23 16:30:00,
2013-05-23 11:37:00,59.3,52.1,30.17,NNE,31,2.0,7.0,77,0.00,,---,0.00,VWS V14.01,2013-05-23 16:37:00,
2013-05-23 11:43:00,59.5,50.8,30.17,NE,52,1.0,10.0,73,0.00,,---,0.00,VWS V14.01,2013-05-23 16:43:00,
2013-05-23 11:49:00,59.5,51.2,30.17,NNE,23,4.0,10.0,74,0.00,,---,0.00,VWS V14.01,2013-05-23 16:49:00,
2013-05-23 11:55:00,60.0,51.0,30.17,ENE,59,2.0,10.0,72,0.00,,---,0.00,VWS V14.01,2013-05-23 16:55:00,
2013-05-23 12:00:00,60.7,51.6,30.17,ENE,72,2.0,11.0,72,0.00,,---,0.00,VWS V14.01,2013-05-23 17:00:00,
2013-05-23 12:07:00,61.1,52.0,30.16,NE,55,2.0,15.0,72,0.00,,---,0.00,VWS V14.01,2013-05-23 17:07:00,
2013-05-23 12:13:00,61.6,52.1,30.16,North,351,3.0,16.0,71,0.00,,---,0.00,VWS V14.01,2013-05-23 17:13:00,
2013-05-23 12:19:00,61.7,51.4,30.16,North,350,5.0,16.0,69,0.00,,---,0.00,VWS V14.01,2013-05-23 17:19:00,
2013-05-23 12:25:00,61.9,51.6,30.16,NNE,24,3.0,16.0,69,0.00,,---,0.00,VWS V14.01,2013-05-23 17:25:00,
2013-05-23 12:31:00,62.2,51.9,30.15,North,5,3.0,16.0,69,0.00,,---,0.00,VWS V14.01,2013-05-23 17:31:00,
2013-05-23 12:37:00,62.6,52.3,30.15,NE,53,4.0,12.0,69,0.00,,---,0.00,VWS V14.01,2013-05-23 17:37:00,
2013-05-23 12:43:00,63.0,51.9,30.15,NE,50,2.0,12.0,67,0.00,,---,0.00,VWS V14.01,2013-05-23 17:43:00,
2013-05-23 12:49:00,63.6,52.5,30.15,NNE,14,11.0,12.0,67,0.00,,---,0.00,VWS V14.01,2013-05-23 17:49:00,
2013-05-23 12:55:00,63.9,53.1,30.14,ENE,62,2.0,15.0,68,0.00,,---,0.00,VWS V14.01,2013-05-23 17:55:00,
2013-05-23 13:01:00,64.9,53.7,30.14,NE,35,7.0,15.0,67,0.00,,---,0.00,VWS V14.01,2013-05-23 18:01:00,
2013-05-23 13:07:00,64.9,51.6,30.14,ENE,61,7.0,10.0,62,0.00,,---,0.00,VWS V14.01,2013-05-23 18:07:00,
2013-05-23 13:13:00,64.8,51.5,30.14,ENE,62,3.0,10.0,62,0.00,,---,0.00,VWS V14.01,2013-05-23 18:13:00,
2013-05-23 13:19:00,65.1,51.3,30.14,NNE,15,2.0,10.0,61,0.00,,---,0.00,VWS V14.01,2013-05-23 18:19:00,
2013-05-23 13:25:00,65.4,50.7,30.15,NE,48,3.0,16.0,59,0.00,,---,0.00,VWS V14.01,2013-05-23 18:25:00,
2013-05-23 13:30:00,65.8,50.2,30.15,East,88,6.0,19.0,57,0.00,,---,0.00,VWS V14.01,2013-05-23 18:30:00,
2013-05-23 13:35:00,65.9,50.2,30.15,ENE,64,4.0,15.0,57,0.00,,---,0.00,VWS V14.01,2013-05-23 18:35:00,
2013-05-23 13:41:00,66.3,50.6,30.15,NNE,22,6.0,15.0,57,0.00,,---,0.00,VWS V14.01,2013-05-23 18:41:00,
2013-05-23 13:47:00,67.2,51.9,30.15,ESE,102,7.0,16.0,58,0.00,,---,0.00,VWS V14.01,2013-05-23 18:47:00,
2013-05-23 13:54:00,67.6,51.4,30.15,ESE,119,1.0,16.0,56,0.00,,---,0.00,VWS V14.01,2013-05-23 18:54:00,
2013-05-23 14:00:00,67.7,50.5,30.15,ENE,67,8.0,16.0,54,0.00,,---,0.00,VWS V14.01,2013-05-23 19:00:00,
2013-05-23 14:06:00,67.7,50.0,30.15,NNE,24,3.0,10.0,53,0.00,,---,0.00,VWS V14.01,2013-05-23 19:06:00,
2013-05-23 14:12:00,67.8,49.5,30.16,East,88,2.0,10.0,52,0.00,,---,0.00,VWS V14.01,2013-05-23 19:12:00,
2013-05-23 14:18:00,67.7,50.0,30.16,NNE,25,0.0,10.0,53,0.00,,---,0.00,VWS V14.01,2013-05-23 19:18:00,
2013-05-23 14:24:00,68.2,49.4,30.16,ENE,69,2.0,13.0,51,0.00,,---,0.00,VWS V14.01,2013-05-23 19:24:00,
2013-05-23 14:30:00,68.8,48.9,30.16,ENE,61,4.0,13.0,49,0.00,,---,0.00,VWS V14.01,2013-05-23 19:30:00,
2013-05-23 14:36:00,68.8,48.3,30.16,East,83,3.0,13.0,48,0.00,,---,0.00,VWS V14.01,2013-05-23 19:36:00,
2013-05-23 14:42:00,68.9,47.9,30.16,NE,51,5.0,13.0,47,0.00,,---,0.00,VWS V14.01,2013-05-23 19:42:00,
2013-05-23 14:48:00,69.0,47.4,30.16,ESE,118,0.0,13.0,46,0.00,,---,0.00,VWS V14.01,2013-05-23 19:48:00,
2013-05-23 14:54:00,69.5,49.5,30.16,ESE,106,5.0,13.0,49,0.00,,---,0.00,VWS V14.01,2013-05-23 19:54:00,
2013-05-23 15:00:00,69.5,46.0,30.16,ESE,102,5.0,13.0,43,0.00,,---,0.00,VWS V14.01,2013-05-23 20:00:00,
2013-05-23 15:06:00,69.5,49.0,30.16,ESE,114,4.0,5.0,48,0.00,,---,0.00,VWS V14.01,2013-05-23 20:06:00,
2013-05-23 15:12:00,69.7,48.0,30.16,ESE,112,3.0,7.0,46,0.00,,---,0.00,VWS V14.01,2013-05-23 20:12:00,
2013-05-23 15:18:00,70.0,50.0,30.16,ESE,115,1.0,7.0,49,0.00,,---,0.00,VWS V14.01,2013-05-23 20:18:00,
2013-05-23 15:24:00,70.2,47.9,30.16,ENE,76,5.0,8.0,45,0.00,,---,0.00,VWS V14.01,2013-05-23 20:24:00,
2013-05-23 15:30:00,70.4,49.2,30.16,ESE,103,7.0,8.0,47,0.00,,---,0.00,VWS V14.01,2013-05-23 20:30:00,
2013-05-23 15:36:00,70.4,47.5,30.16,ENE,61,0.0,6.0,44,0.00,,---,0.00,VWS V14.01,2013-05-23 20:36:00,
2013-05-23 15:42:00,70.4,48.7,30.15,ESE,113,0.0,6.0,46,0.00,,---,0.00,VWS V14.01,2013-05-23 20:42:00,
2013-05-23 15:48:00,71.0,49.8,30.15,East,86,1.0,6.0,47,0.00,,---,0.00,VWS V14.01,2013-05-23 20:48:00,
2013-05-23 15:54:00,70.9,48.5,30.15,ENE,67,0.0,6.0,45,0.00,,---,0.00,VWS V14.01,2013-05-23 20:54:00,
2013-05-23 16:00:00,71.0,49.8,30.15,ESE,107,0.0,6.0,47,0.00,,---,0.00,VWS V14.01,2013-05-23 21:00:00,
2013-05-23 16:06:00,71.3,49.5,30.15,SE,128,8.0,8.0,46,0.00,,---,0.00,VWS V14.01,2013-05-23 21:06:00,
2013-05-23 16:12:00,71.3,50.6,30.15,NNE,22,5.0,10.0,48,0.00,,---,0.00,VWS V14.01,2013-05-23 21:12:00,
2013-05-23 16:18:00,71.1,48.7,30.15,ESE,109,3.0,10.0,45,0.00,,---,0.00,VWS V14.01,2013-05-23 21:18:00,
2013-05-23 16:24:00,70.9,48.5,30.15,East,98,5.0,11.0,45,0.00,,---,0.00,VWS V14.01,2013-05-23 21:24:00,
2013-05-23 16:30:00,71.0,48.6,30.15,East,96,1.0,11.0,45,0.00,,---,0.00,VWS V14.01,2013-05-23 21:30:00,
2013-05-23 16:36:00,71.3,49.5,30.15,NE,36,0.0,4.0,46,0.00,,---,0.00,VWS V14.01,2013-05-23 21:36:00,
2013-05-23 16:42:00,71.6,49.8,30.14,East,95,2.0,6.0,46,0.00,,---,0.00,VWS V14.01,2013-05-23 21:42:00,
2013-05-23 16:49:00,71.6,48.6,30.14,ESE,108,3.0,9.0,44,0.00,,---,0.00,VWS V14.01,2013-05-23 21:49:00,
2013-05-23 16:55:00,71.3,46.4,30.15,ESE,115,5.0,9.0,41,0.00,,---,0.00,VWS V14.01,2013-05-23 21:55:00,
2013-05-23 17:00:00,71.3,46.4,30.15,ENE,73,2.0,10.0,41,0.00,,---,0.00,VWS V14.01,2013-05-23 22:00:00,
2013-05-23 17:07:00,71.6,47.9,30.15,NE,34,2.0,7.0,43,0.00,,---,0.00,VWS V14.01,2013-05-23 22:07:00,
2013-05-23 17:13:00,71.5,47.8,30.14,NE,34,5.0,7.0,43,0.00,,---,0.00,VWS V14.01,2013-05-23 22:13:00,
2013-05-23 17:19:00,71.3,46.4,30.14,NE,45,0.0,7.0,41,0.00,,---,0.00,VWS V14.01,2013-05-23 22:19:00,
2013-05-23 17:25:00,71.5,47.2,30.14,ENE,57,0.0,8.0,42,0.00,,---,0.00,VWS V14.01,2013-05-23 22:25:00,
2013-05-23 17:31:00,71.6,46.7,30.14,ESE,117,2.0,8.0,41,0.00,,---,0.00,VWS V14.01,2013-05-23 22:31:00,
2013-05-23 17:37:00,71.7,46.8,30.14,ESE,107,1.0,7.0,41,0.00,,---,0.00,VWS V14.01,2013-05-23 22:37:00,
2013-05-23 17:43:00,71.6,46.7,30.15,ENE,69,2.0,7.0,41,0.00,,---,0.00,VWS V14.01,2013-05-23 22:43:00,
2013-05-23 17:49:00,71.7,47.4,30.14,ESE,113,2.0,8.0,42,0.00,,---,0.00,VWS V14.01,2013-05-23 22:49:00,
2013-05-23 17:55:00,71.7,46.8,30.14,ESE,111,3.0,8.0,41,0.00,,---,0.00,VWS V14.01,2013-05-23 22:55:00,
2013-05-23 18:01:00,71.5,45.9,30.14,ENE,76,1.0,10.0,40,0.00,,---,0.00,VWS V14.01,2013-05-23 23:01:00,
2013-05-23 18:07:00,71.4,47.1,30.14,East,94,0.0,8.0,42,0.00,,---,0.00,VWS V14.01,2013-05-23 23:07:00,
2013-05-23 18:13:00,71.4,46.5,30.14,ESE,106,2.0,8.0,41,0.00,,---,0.00,VWS V14.01,2013-05-23 23:13:00,
2013-05-23 18:19:00,71.4,46.5,30.15,East,96,1.0,8.0,41,0.00,,---,0.00,VWS V14.01,2013-05-23 23:19:00,
2013-05-23 18:25:00,71.5,45.9,30.15,East,93,1.0,8.0,40,0.00,,---,0.00,VWS V14.01,2013-05-23 23:25:00,
2013-05-23 18:31:00,71.5,47.2,30.15,East,93,0.0,8.0,42,0.00,,---,0.00,VWS V14.01,2013-05-23 23:31:00,
2013-05-23 18:37:00,71.5,46.6,30.14,East,100,0.0,6.0,41,0.00,,---,0.00,VWS V14.01,2013-05-23 23:37:00,
2013-05-23 18:43:00,71.3,45.8,30.15,ESE,117,7.0,8.0,40,0.00,,---,0.00,VWS V14.01,2013-05-23 23:43:00,
2013-05-23 18:49:00,71.0,46.1,30.14,East,96,6.0,9.0,41,0.00,,---,0.00,VWS V14.01,2013-05-23 23:49:00,
2013-05-23 18:55:00,70.9,46.0,30.14,ESE,107,5.0,9.0,41,0.00,,---,0.00,VWS V14.01,2013-05-23 23:55:00,
2013-05-23 19:01:00,70.8,44.6,30.14,ESE,115,4.0,9.0,39,0.00,,---,0.00,VWS V14.01,2013-05-24 00:01:00,
2013-05-23 19:07:00,70.5,45.7,30.14,ESE,113,1.0,11.0,41,0.00,,---,0.00,VWS V14.01,2013-05-24 00:07:00,
2013-05-23 19:13:00,70.3,45.5,30.14,East,94,0.0,11.0,41,0.00,,---,0.00,VWS V14.01,2013-05-24 00:13:00,
2013-05-23 19:19:00,70.2,46.1,30.14,East,92,1.0,11.0,42,0.00,,---,0.00,VWS V14.01,2013-05-24 00:19:00,
2013-05-23 19:25:00,70.1,45.3,30.14,ENE,72,2.0,11.0,41,0.00,,---,0.00,VWS V14.01,2013-05-24 00:25:00,
2013-05-23 19:30:00,70.1,45.3,30.14,ENE,70,0.0,11.0,41,0.00,,---,0.00,VWS V14.01,2013-05-24 00:30:00,
2013-05-23 19:35:00,69.9,45.2,30.14,ENE,70,0.0,3.0,41,0.00,,---,0.00,VWS V14.01,2013-05-24 00:35:00,
2013-05-23 19:41:00,69.8,45.1,30.14,ENE,76,0.0,3.0,41,0.00,,---,0.00,VWS V14.01,2013-05-24 00:41:00,
2013-05-23 19:48:00,69.5,45.4,30.14,East,91,3.0,5.0,42,0.00,,---,0.00,VWS V14.01,2013-05-24 00:48:00,
2013-05-23 19:54:00,69.3,45.2,30.14,ESE,117,4.0,9.0,42,0.00,,---,0.00,VWS V14.01,2013-05-24 00:54:00,
2013-05-23 20:00:00,69.0,45.0,30.14,ENE,74,1.0,9.0,42,0.00,,---,0.00,VWS V14.01,2013-05-24 01:00:00,
2013-05-23 20:06:00,68.7,45.3,30.14,East,90,0.0,5.0,43,0.00,,---,0.00,VWS V14.01,2013-05-24 01:06:00,
2013-05-23 20:12:00,68.6,45.2,30.14,ESE,111,0.0,6.0,43,0.00,,---,0.00,VWS V14.01,2013-05-24 01:12:00,
2013-05-23 20:18:00,68.3,45.0,30.14,ESE,113,2.0,6.0,43,0.00,,---,0.00,VWS V14.01,2013-05-24 01:18:00,
2013-05-23 20:24:00,68.0,45.3,30.14,ESE,114,2.0,6.0,44,0.00,,---,0.00,VWS V14.01,2013-05-24 01:24:00,
2013-05-23 20:30:00,67.7,45.0,30.14,ESE,110,0.0,6.0,44,0.00,,---,0.00,VWS V14.01,2013-05-24 01:30:00,
2013-05-23 20:36:00,67.3,44.7,30.14,ESE,109,0.0,1.0,44,0.00,,---,0.00,VWS V14.01,2013-05-24 01:36:00,
2013-05-23 20:42:00,66.8,44.8,30.14,ESE,109,0.0,1.0,45,0.00,,---,0.00,VWS V14.01,2013-05-24 01:42:00,
2013-05-23 20:48:00,66.4,45.0,30.14,ESE,110,0.0,3.0,46,0.00,,---,0.00,VWS V14.01,2013-05-24 01:48:00,
2013-05-23 20:54:00,66.0,44.7,30.14,ESE,109,0.0,3.0,46,0.00,,---,0.00,VWS V14.01,2013-05-24 01:54:00,
2013-05-23 21:00:00,65.6,44.8,30.14,ESE,110,0.0,3.0,47,0.00,,---,0.00,VWS V14.01,2013-05-24 02:00:00,
2013-05-23 21:06:00,65.3,45.1,30.14,ESE,109,0.0,2.0,48,0.00,,---,0.00,VWS V14.01,2013-05-24 02:06:00,
2013-05-23 21:12:00,64.9,44.8,30.14,ESE,109,2.0,2.0,48,0.00,,---,0.00,VWS V14.01,2013-05-24 02:12:00,
2013-05-23 21:18:00,64.6,45.0,30.15,ESE,110,1.0,2.0,49,0.00,,---,0.00,VWS V14.01,2013-05-24 02:18:00,
2013-05-23 21:24:00,64.2,44.7,30.14,ESE,109,0.0,2.0,49,0.00,,---,0.00,VWS V14.01,2013-05-24 02:24:00,
2013-05-23 21:30:00,64.0,45.0,30.15,ESE,109,0.0,2.0,50,0.00,,---,0.00,VWS V14.01,2013-05-24 02:30:00,
2013-05-23 21:36:00,63.9,45.4,30.15,ESE,109,0.0,0.0,51,0.00,,---,0.00,VWS V14.01,2013-05-24 02:36:00,
2013-05-23 21:42:00,63.4,45.5,30.15,ESE,109,0.0,0.0,52,0.00,,---,0.00,VWS V14.01,2013-05-24 02:42:00,
2013-05-23 21:48:00,62.8,44.9,30.15,ESE,110,0.0,1.0,52,0.00,,---,0.00,VWS V14.01,2013-05-24 02:48:00,
2013-05-23 21:54:00,62.8,44.9,30.16,ESE,109,0.0,2.0,52,0.00,,---,0.00,VWS V14.01,2013-05-24 02:54:00,
2013-05-23 22:00:00,62.7,44.8,30.16,ESE,109,0.0,2.0,52,0.00,,---,0.00,VWS V14.01,2013-05-24 03:00:00,
2013-05-23 22:06:00,62.5,44.7,30.16,ESE,109,0.0,3.0,52,0.00,,---,0.00,VWS V14.01,2013-05-24 03:06:00,
2013-05-23 22:12:00,62.4,44.6,30.16,ESE,109,1.0,3.0,52,0.00,,---,0.00,VWS V14.01,2013-05-24 03:12:00,
2013-05-23 22:18:00,62.3,45.0,30.17,ESE,109,0.0,3.0,53,0.00,,---,0.00,VWS V14.01,2013-05-24 03:18:00,
2013-05-23 22:24:00,61.9,45.1,30.17,ESE,109,1.0,3.0,54,0.00,,---,0.00,VWS V14.01,2013-05-24 03:24:00,
2013-05-23 22:30:00,61.2,44.9,30.18,ESE,110,0.0,3.0,55,0.00,,---,0.00,VWS V14.01,2013-05-24 03:30:00,
2013-05-23 22:36:00,60.4,44.2,30.18,ESE,110,0.0,0.0,55,0.00,,---,0.00,VWS V14.01,2013-05-24 03:36:00,
2013-05-23 22:43:00,59.7,44.5,30.18,ESE,109,0.0,1.0,57,0.00,,---,0.00,VWS V14.01,2013-05-24 03:43:00,
2013-05-23 22:49:00,59.0,44.7,30.18,ESE,109,0.0,1.0,59,0.00,,---,0.00,VWS V14.01,2013-05-24 03:49:00,
2013-05-23 22:55:00,59.0,44.7,30.18,ESE,109,0.0,3.0,59,0.00,,---,0.00,VWS V14.01,2013-05-24 03:55:00,
2013-05-23 23:00:00,58.6,44.8,30.18,ESE,110,0.0,3.0,60,0.00,,---,0.00,VWS V14.01,2013-05-24 04:00:00,
2013-05-23 23:01:00,58.6,45.2,30.18,ESE,109,0.0,0.0,61,0.00,,---,0.00,VWS V14.01,2013-05-24 04:01:00,
2013-05-23 23:05:00,58.0,45.1,30.19,ESE,110,0.0,0.0,62,0.00,,---,0.00,VWS V14.01,2013-05-24 04:05:00,
2013-05-23 23:07:00,57.7,44.8,30.19,ESE,110,0.0,0.0,62,0.00,,---,0.00,VWS V14.01,2013-05-24 04:07:00,
2013-05-23 23:13:00,57.5,45.4,30.19,ESE,110,1.0,2.0,64,0.00,,---,0.00,VWS V14.01,2013-05-24 04:13:00,
2013-05-23 23:19:00,57.8,44.9,30.19,ESE,110,1.0,2.0,62,0.00,,---,0.00,VWS V14.01,2013-05-24 04:19:00,
2013-05-23 23:25:00,57.8,45.3,30.19,ESE,109,0.0,2.0,63,0.00,,---,0.00,VWS V14.01,2013-05-24 04:25:00,
2013-05-23 23:29:00,57.3,44.8,30.19,ESE,110,0.0,2.0,63,0.00,,---,0.00,VWS V14.01,2013-05-24 04:29:00,
2013-05-23 23:35:00,56.6,44.6,30.19,ESE,109,0.0,0.0,64,0.00,,---,0.00,VWS V14.01,2013-05-24 04:35:00,
2013-05-23 23:41:00,56.0,44.4,30.19,ESE,110,0.0,0.0,65,0.00,,---,0.00,VWS V14.01,2013-05-24 04:41:00,
2013-05-23 23:47:00,55.5,44.3,30.20,ESE,109,0.0,0.0,66,0.00,,---,0.00,VWS V14.01,2013-05-24 04:47:00,
2013-05-23 23:53:00,55.9,44.7,30.20,ESE,110,0.0,0.0,66,0.00,,---,0.00,VWS V14.01,2013-05-24 04:53:00,
2013-05-23 23:59:00,56.2,45.0,30.20,ESE,110,0.0,0.0,66,0.00,,---,0.00,VWS V14.01,2013-05-24 04:59:00,